STARLINK-1786 (46688 NORAD) Tracking and Keplerian Element Data

This shows tracking and keplerian element data for the satellite.

Feedback or suggestion? Click here.




ElementValue
Catalog46688
NameSTARLINK-1786
Epoch Orbit655
Epoch Day331.16668981
Epoch Year2020
RAAN280.1157
Inclination53.0551
Eccentricity0.0001276
Argument of Perigee60.9274
Mean Anonmoly338.6367
Mean Motion15.39327191
Decay Rate-0.0108312
L11 46688U 20073U 20331.16668981 -.01083120 00000-0 -29793-1 0 9996
L22 46688 53.0551 280.1157 0001276 60.9274 338.6367 15.39327191 6554

Live tracking and technical data element details for STARLINK-1786 (NORAD 46688). STARLINK-1786 can be tracked NOW for your location showing map with azimuth and elevation plus other details from your city location.

Track the satellite on the map from your city or location and see movement details for azimuth, elevation, latitude, longitude, range, height, and movement on the map or in text.







IsCatalogInMostPopularTable: catalog: 46688, numindb: 9
Update: records affected: 1



GetName: 46688 STARLINK-1786

Hit Count: updated at: Thu, 26 Nov 2020 23:24:39 GMT